Starlink 11552

operational
NORAD ID: 62907 Int'l Des: 2025-027 Owner: SPXS Country: US Constellation: starlink
LEOCIRCULAR

About Starlink 11552

Description loading...

Live Position

Loading 3D Globe...

Upcoming Passes

Altitude History

Altitude vs Time

uPlot chart will show altitude changes over time

Two-Line Element Set

1 62907U 25027A 25257.45473982 .00214155 00000-0 16283-2 0 9993
2 62907 42.9987 330.0694 0002188 290.1450 69.9183 15.70861221 35478
Epoch: Sep 14, 2025 • Age: 18 hours

Current Status

Altitude 365.4 km
Velocity 7.69 km/s
Sub-Earth Point -38.27°S, 160.39°W
Launch Date Feb 8, 2025
Age 0.5 years
Type internet

Technical Details

Classification Payload
Mass 960.00 kg
Dry Mass 910.00 kg
Total Mass 960.00 kg
Length 0.30 m
Diameter 4.10 m
Span 29.00 m
Shape Box + pan
Manufacturer SPXS
Bus Type Starlink V2MD
Phase Status In Orbit
Owner/State SPXS/US

Large Constellations

Loading constellations...